DW0542 Weather Reports


time (UTC)temp
F
wind
direction
speed
knots
gust
knots
rain 1hr
in
rain 24hr
in
rain mn
in
humidity
%
barometer
mb
20260906123102 57 349 0.0 0.0 0.02 0.16 0.16 87 1015.4
20260906121556 57 349 0.0 0.0 0.03 0.16 0.16 87 1015.4
20260906120119 57 349 0.0 3.5 0.03 0.15 0.15 87 1015.4
20260906114602 56 62 0.0 0.0 0.04 0.14 0.14 86 1015.3
20260906113020 56 62 0.0 0.0 0.05 0.14 0.14 86 1014.9
20260906110044 57 328 0.0 2.6 0.04 0.12 0.12 86 1014.5
20260906104544 59 321 0.0 1.7 0.02 0.10 0.10 87 1014.4
20260906103046 59 321 0.0 3.5 0.01 0.09 0.09 87 1014.1
20260906101536 59 321 0.0 0.0 0.01 0.08 0.08 87 1013.7
20260906100033 59 321 0.0 0.0 0.01 0.08 0.08 87 1013.6
20260906094544 60 321 0.0 0.0 0.01 0.08 0.08 87 1013.5
20260906093037 60 321 1.7 5.2 0.01 0.08 0.08 87 1013.4
20260906091535 60 320 0.0 4.3 0.00 0.07 0.07 87 1013.2
20260906090026 60 317 0.0 0.0 0.00 0.07 0.07 87 1013.1
20260906084528 60 317 0.0 2.6 0.00 0.07 0.07 87 1013.0
20260906083023 60 317 0.0 0.0 0.00 0.07 0.07 87 1013.0
20260906081522 61 316 0.9 5.2 0.00 0.07 0.07 87 1012.9
20260906080022 60 312 0.9 3.5 0.00 0.07 0.07 87 1012.9
20260906074520 61 310 0.0 5.2 0.01 0.07 0.07 87 1012.8
20260906073015 60 339 0.0 5.2 0.01 0.07 0.07 87 1012.8
20260906071515 60 339 0.0 4.3 0.01 0.07 0.07 87 1012.8
20260906070020 61 339 1.7 5.2 0.01 0.07 0.07 87 1012.8
20260906064511 60 357 0.0 0.0 0.00 0.06 0.06 87 1012.8
20260906063011 60 1 0.0 0.0 0.00 0.06 0.06 87 1012.9
20260906061511 59 18 0.0 0.9 0.00 0.06 0.06 87 1013.0
20260906060009 59 36 0.0 0.0 0.00 0.06 0.06 87 1013.0
20260906054506 59 36 0.0 0.0 0.00 0.06 0.06 87 1012.9
20260906053035 59 36 0.0 0.0 0.00 0.06 0.06 87 1012.8
20260906051537 60 36 0.0 0.0 0.00 0.06 0.06 87 1012.9
20260906050038 60 36 0.0 0.0 0.00 0.06 0.06 87 1013.0
20260906044531 60 36 0.0 0.0 0.01 0.06 0.06 87 1013.0
20260906043030 60 36 0.0 0.0 0.01 0.06 0.06 87 1012.9
20260906041529 60 36 0.0 0.0 0.01 0.06 0.06 87 1013.0
20260906040128 61 36 0.0 1.7 0.02 0.06 0.06 87 1013.1
20260906034525 60 55 0.0 2.6 0.03 0.05 0.05 87 1013.1
20260906033023 60 76 0.0 2.6 0.03 0.05 0.05 87 1013.0
20260906031554 60 76 0.0 0.0 0.03 0.05 0.05 86 1012.9
20260906030018 60 76 0.0 0.0 0.02 0.04 0.04 86 1012.9
20260906024538 60 76 0.0 1.7 0.00 0.02 0.02 86 1012.9
20260906023020 61 76 0.0 0.0 0.00 0.02 0.02 86 1012.8
20260906021515 61 76 0.0 0.0 0.00 0.02 0.02 86 1012.6
20260906020115 60 76 0.0 0.0 0.00 0.02 0.02 86 1012.5
20260906014543 61 76 0.0 0.0 0.00 0.02 0.02 86 1012.5
20260906013042 61 76 0.0 0.0 0.01 0.02 0.02 86 1012.6
20260906011539 61 76 0.0 0.0 0.02 0.02 0.02 86 1012.7
20260906010046 62 76 0.0 0.0 0.02 0.02 0.02 85 1012.7
20260906004534 62 76 0.0 0.0 0.02 0.02 0.02 85 1012.8
20260906003031 63 76 0.0 0.9 0.01 0.01 0.01 83 1012.5
20260906001556 64 80 0.0 3.5 0.00 0.00 0.00 82 1012.3
20260905234554 65 90 0.0 0.0 0.00 0.00 0.00 81 1011.7
20260905233051 65 90 0.0 1.7 0.00 0.00 0.00 81 1011.4
20260905231546 66 89 0.0 0.0 0.00 0.00 0.00 81 1011.4
20260905230045 66 89 0.0 0.0 0.00 0.00 0.00 82 1011.3
20260905224540 67 89 0.0 0.0 0.00 0.00 0.00 82 1011.3
20260905223039 67 89 0.0 0.0 0.00 0.00 0.00 82 1011.3
20260905221537 67 89 0.0 0.0 0.00 0.00 0.00 81 1011.2
20260905220039 67 89 0.0 0.0 0.00 0.00 0.00 81 1011.0
20260905213110 69 83 0.0 0.9 0.00 0.00 0.00 79 1010.5
20260905210028 68 331 0.0 0.9 0.00 0.00 0.00 82 1010.3
20260905204525 68 328 0.0 0.0 0.00 0.00 0.00 81 1010.2
20260905203025 67 328 0.0 0.0 0.00 0.00 0.00 81 1010.3
20260905201531 67 328 0.0 0.0 0.00 0.00 0.00 81 1010.2
20260905200027 67 328 0.0 5.2 0.00 0.00 0.00 81 1010.1
20260905194520 67 326 0.0 3.5 0.00 0.00 0.00 80 1010.1
20260905193018 67 130 0.0 0.0 0.00 0.00 0.00 80 1009.9
20260905191518 68 130 0.0 0.9 0.00 0.00 0.00 78 1009.9
20260905190018 70 344 0.0 5.2 0.00 0.00 0.00 73 1010.0
20260905184514 71 290 0.0 0.0 0.00 0.00 0.00 71 1009.7
20260905183020 71 290 0.0 0.0 0.00 0.00 0.00 73 1009.7
20260905181512 71 290 0.0 0.0 0.00 0.00 0.00 74 1009.9
20260905180011 71 290 0.0 0.0 0.00 0.00 0.00 73 1009.9
20260905174545 72 8 0.0 1.7 0.00 0.00 0.00 72 1009.8
20260905173055 72 124 0.0 5.2 0.00 0.00 0.00 72 1009.6
20260905171539 72 327 0.0 3.5 0.00 0.00 0.00 74 1009.6
20260905170039 71 328 0.0 1.7 0.00 0.00 0.00 74 1009.6
20260905164536 71 326 0.0 7.0 0.00 0.00 0.00 73 1009.4
20260905163035 71 325 0.0 5.2 0.00 0.00 0.00 71 1009.4
20260905161504 71 328 0.0 11.3 0.00 0.00 0.00 72 1009.4
20260905160004 70 331 0.0 7.0 0.00 0.00 0.00 75 1009.4
20260905154502 69 334 0.0 5.2 0.00 0.00 0.00 74 1009.7
20260905153001 70 334 0.0 3.5 0.00 0.00 0.00 75 1009.8
20260905151612 70 339 0.0 7.0 0.00 0.00 0.00 74 1009.7
20260905144559 69 334 0.0 7.0 0.00 0.00 0.00 74 1009.4
20260905143200 70 339 3.5 13.0 0.00 0.00 0.00 74 1009.3
20260905141556 70 332 4.3 9.6 0.00 0.00 0.00 74 1009.4
20260905140056 70 339 4.3 10.4 0.00 0.00 0.00 74 1009.4
20260905134559 69 328 0.0 5.2 0.00 0.00 0.00 76 1009.5
20260905133056 68 324 0.9 8.7 0.00 0.00 0.00 78 1009.4
20260905131552 68 307 4.3 8.7 0.00 0.00 0.00 79 1009.6
20260905130051 67 326 0.0 5.2 0.00 0.00 0.00 80 1009.7
20260905124532 66 324 0.9 5.2 0.00 0.00 0.00 80 1009.6